Overview Statistics Trail Chart Weather Telemetry Raw packets
 

This is the latest recevied weather packets stored in our database for station/object KV9E. If no packets are shown the sender has not sent any weather packets the latest 10 day(s).

<< 97 98 99 100 101 102 103 >>
Time Temp. Humidity Pressure Rain* Wind** Luminosity Snow
1787877742 23.89° C 76% 1014.6 hPa 0 mm - 0 W/m² -
1787877436 23.89° C 75% 1014.6 hPa 0 mm - 0 W/m² -
1787877133 23.89° C 75% 1014.6 hPa 0 mm - 0 W/m² -
1787876832 23.89° C 75% 1014.6 hPa 0 mm - 1 W/m² -
1787876528 23.89° C 74% 1014.5 hPa 0 mm - 1 W/m² -
1787876226 24.44° C 74% 1014.2 hPa 0 mm - 2 W/m² -
1787875921 24.44° C 73% 1014.4 hPa 0 mm - 3 W/m² -
1787875615 24.44° C 73% 1014.3 hPa 0 mm - 5 W/m² -
1787875309 24.44° C 73% 1014.5 hPa 0 mm - 7 W/m² -
1787875007 25° C 73% 1014.4 hPa 0 mm - 10 W/m² -
1787874703 25° C 72% 1014.4 hPa 0 mm - 13 W/m² -
1787874401 25° C 72% 1014.4 hPa 0 mm - 16 W/m² -
1787874096 25.56° C 72% 1014.3 hPa 0 mm - 18 W/m² -
1787873796 25.56° C 70% 1014.3 hPa 0 mm - 22 W/m² -
1787873496 25.56° C 69% 1014.5 hPa 0 mm - 22 W/m² -
1787873186 26.11° C 72% 1014.4 hPa 0 mm - 25 W/m² -
1787872885 26.11° C 70% 1014.5 hPa 0 mm - 27 W/m² -
1787872580 26.11° C 68% 1014.5 hPa 0 mm - 31 W/m² -
1787872275 26.11° C 69% 1014.6 hPa 0 mm - 35 W/m² -
1787871970 26.67° C 66% 1014.4 hPa 0 mm - 40 W/m² -
1787871665 27.22° C 66% 1014.4 hPa 0 mm - 39 W/m² -
1787871355 27.78° C 64% 1014.5 hPa 0 mm - 46 W/m² -
1787871050 28.33° C 62% 1014.5 hPa 0 mm - 106 W/m² -
1787870750 28.33° C 65% 1014.6 hPa 0 mm - 116 W/m² -
1787870445 28.33° C 65% 1014.5 hPa 0 mm - 127 W/m² -

* Rain latest hour (hover to see other rain measurements)
** Current wind speed in m/s (hover to see current wind gust speed)